Weather History for KLOT - March, 2013

Change the Weather History Date:

Monday, March 11, 2013

  Actual Average Record
Temperature  
Mean Temperature 40 °F 37 °F  
Max Temperature 48 °F 46 °F 68 °F (2012)
Min Temperature 32 °F 28 °F 11 °F (1998)
Degree Days  
Heating Degree Days 25 28  
Month to date heating degree days 367 333  
Since 1 July heating degree days 4821 5061  
Cooling Degree Days 0 0  
Month to date cooling degree days 0 0  
Year to date cooling degree days 0 0  
Moisture  
Dew Point 37 °F    
Average Humidity 97    
Maximum Humidity 100    
Minimum Humidity 91    
Precipitation  
Precipitation 0.11 in 0.08 in 0.50 in (2010)
Month to date precipitation 2.09 0.95  
Year to date precipitation 7.91 4.66  
Snow  
Snow T in 0.20 in 2.00 in (1993)
Month to date snowfall 8.7 2.4  
Since 1 July snowfall 21.7 29.8  
Snow Depth 0.00 in    
Sea Level Pressure  
Sea Level Pressure 29.64 in    
Wind  
Wind Speed 12 mph (WSW)    
Max Wind Speed 20 mph    
Max Gust Speed 24 mph    
Visibility 5 miles    
Events Fog , Rain    
T = Trace of Precipitation, MM = Missing Value Source: NWS Daily Summary

Daily Weather History Graph

Daily Weather History Graph

Search for Another Location

Airport or City:

Trip Planner

Search our weather history database for the weather conditions in past years. The results will help you decide how hot, cold, wet, or windy it might be!

Date:

Astronomy

Mar. 11, 2013 Rise Set
Actual Time 7:10 AM CDT 6:54 PM CDT
Civil Twilight 6:42 AM CDT 7:22 PM CDT
Nautical Twilight 6:10 AM CDT 7:54 PM CDT
Astronomical Twilight 5:38 AM CDT 8:27 PM CDT
Moon 6:43 AM CDT (3/11) 7:07 PM CDT (3/11)
Length of Visible Light 12h 39m
Length of Day
11h 44m
Waning Crescent, 0% of the Moon is Illuminated
Mar 11
Waning Crescent
Mar 11
New
Mar 19
First Quarter
Mar 27
Full
Apr 2
Last Quarter

Hourly Weather History & Observations

Time (CDT) Temp. Windchill Dew Point Humidity Pressure Visibility Wind Dir Wind Speed Gust Speed Precip Events Conditions
12:15 AM 46.8 °F - 46.2 °F 98% 29.64 in 7.0 mi SSW 12.7 mph - N/A   Overcast
12:35 AM 46.4 °F 40.7 °F 45.7 °F 97% 29.63 in 7.0 mi SW 12.7 mph - N/A   Overcast
12:55 AM 46.0 °F 40.2 °F 45.5 °F 98% 29.63 in 7.0 mi SW 12.7 mph 17.3 mph N/A   Overcast
1:15 AM 46.9 °F - 46.0 °F 97% 29.64 in 7.0 mi SW 13.8 mph - N/A   Overcast
1:35 AM 46.6 °F - 45.7 °F 97% 29.64 in 5.0 mi SW 11.5 mph - N/A   Overcast
1:55 AM 45.5 °F 40.8 °F 44.8 °F 97% 29.64 in 4.0 mi SW 9.2 mph - N/A   Overcast
2:15 AM 45.0 °F 40.1 °F 44.6 °F 99% 29.64 in 2.5 mi SW 9.2 mph - N/A   Overcast
2:35 AM 43.9 °F 39.9 °F 43.7 °F 99% 29.63 in 1.5 mi SSW 6.9 mph - N/A   Overcast
2:55 AM 43.5 °F 39.4 °F 43.2 °F 99% 29.63 in 0.8 mi SSW 6.9 mph - N/A   Light Drizzle
3:15 AM 43.5 °F 39.4 °F 43.3 °F 99% 29.62 in 0.8 mi SW 6.9 mph - N/A   Overcast
3:35 AM 43.0 °F 39.5 °F 42.8 °F 99% 29.62 in 0.8 mi SW 5.8 mph - N/A   Overcast
3:55 AM 43.5 °F 39.4 °F 43.3 °F 99% 29.60 in 0.8 mi SSW 6.9 mph - N/A   Overcast
4:15 AM 42.8 °F 40.1 °F 42.8 °F 100% 29.60 in 0.5 mi SW 4.6 mph - N/A Fog Fog
4:35 AM 43.7 °F 42.1 °F 43.7 °F 100% 29.59 in 0.5 mi SW 3.5 mph - N/A Fog Fog
4:55 AM 43.7 °F 42.1 °F 43.7 °F 100% 29.59 in 0.5 mi SSW 3.5 mph - N/A Fog Fog
5:15 AM 42.8 °F 39.3 °F 42.8 °F 100% 29.58 in 0.2 mi SSE 5.8 mph - N/A Fog Fog
5:35 AM 43.2 °F 39.0 °F 43.2 °F 100% 29.59 in 1.0 mi South 6.9 mph - N/A   Overcast
5:55 AM 42.3 °F 39.4 °F 42.3 °F 100% 29.60 in 0.5 mi SSW 4.6 mph - N/A Rain Rain
6:15 AM 41.9 °F 36.3 °F 41.9 °F 100% 29.60 in 0.2 mi SW 9.2 mph - N/A   Light Drizzle
6:35 AM 43.7 °F 38.1 °F 43.7 °F 100% 29.62 in 1.8 mi WSW 10.4 mph - N/A Rain Heavy Rain
6:55 AM 43.2 °F 37.9 °F 43.0 °F 99% 29.62 in 2.5 mi WSW 9.2 mph - N/A   Drizzle
7:15 AM 42.3 °F 35.9 °F 42.3 °F 100% 29.62 in 4.0 mi WSW 11.5 mph 20.7 mph N/A Rain Light Rain
7:35 AM 40.3 °F 33.0 °F 40.3 °F 100% 29.62 in 5.0 mi WSW 12.7 mph - N/A Rain Light Rain
7:55 AM 39.2 °F 31.6 °F 39.0 °F 99% 29.62 in 10.0 mi WSW 12.7 mph 18.4 mph N/A   Overcast
8:15 AM 38.3 °F 30.5 °F 38.1 °F 99% 29.62 in 7.0 mi WSW 12.7 mph - N/A   Overcast
8:35 AM 37.9 °F 30.0 °F 37.4 °F 98% 29.61 in 5.0 mi West 12.7 mph - N/A Rain Rain
8:55 AM 37.6 °F 31.0 °F 36.9 °F 97% 29.60 in 4.0 mi West 9.2 mph - N/A   Overcast
9:15 AM 37.4 °F 29.3 °F 36.9 °F 98% 29.62 in 7.0 mi WSW 12.7 mph - N/A Rain Rain
9:35 AM 37.4 °F 29.3 °F 37.4 °F 100% 29.61 in 7.0 mi WSW 12.7 mph - N/A Rain Light Rain
9:55 AM 37.6 °F 29.1 °F 37.0 °F 98% 29.61 in 7.0 mi WSW 13.8 mph - N/A   Overcast
10:15 AM 37.6 °F 29.1 °F 37.2 °F 99% 29.60 in 4.0 mi WSW 13.8 mph 18.4 mph N/A   Overcast
10:35 AM 37.0 °F 29.3 °F 36.7 °F 99% 29.60 in 1.2 mi WSW 11.5 mph - N/A   Overcast
10:55 AM 36.5 °F 27.4 °F 36.3 °F 99% 29.60 in 2.0 mi WSW 15.0 mph - N/A   Overcast
11:15 AM 36.1 °F 28.7 °F 36.0 °F 99% 29.61 in 1.5 mi WSW 10.4 mph - N/A   Overcast
11:35 AM 35.6 °F 25.9 °F 35.2 °F 99% 29.60 in 1.8 mi WSW 16.1 mph 23.0 mph N/A   Overcast
11:55 AM 35.2 °F 25.0 °F 35.1 °F 99% 29.60 in 5.0 mi WSW 17.3 mph 21.9 mph N/A   Overcast
12:15 PM 35.2 °F 26.2 °F 34.7 °F 98% 29.60 in 7.0 mi WSW 13.8 mph 19.6 mph N/A   Overcast
12:35 PM 35.2 °F 27.1 °F 34.7 °F 98% 29.59 in 2.5 mi WSW 11.5 mph 18.4 mph N/A   Overcast
12:55 PM 35.2 °F 26.2 °F 34.3 °F 97% 29.59 in 2.5 mi WSW 13.8 mph - N/A   Drizzle
1:15 PM 35.2 °F 26.6 °F 34.3 °F 97% 29.58 in 2.5 mi WSW 12.7 mph 21.9 mph N/A Rain Rain
1:35 PM 35.6 °F 25.9 °F 34.7 °F 97% 29.57 in 3.0 mi WSW 16.1 mph - N/A   Light Drizzle
1:55 PM 35.2 °F 26.2 °F 34.2 °F 96% 29.57 in 3.0 mi WSW 13.8 mph - N/A   Light Drizzle
2:15 PM 35.6 °F 26.2 °F 34.7 °F 97% 29.56 in 2.5 mi WSW 15.0 mph - N/A   Drizzle
2:35 PM 35.6 °F 27.1 °F 34.7 °F 97% 29.56 in 3.0 mi WSW 12.7 mph - N/A   Drizzle
2:55 PM 35.4 °F 25.6 °F 34.2 °F 95% 29.57 in 5.0 mi West 16.1 mph 24.2 mph N/A Rain Rain
3:15 PM 34.7 °F 24.7 °F 33.8 °F 97% 29.58 in 4.0 mi WSW 16.1 mph - N/A   Light Drizzle
3:35 PM 34.7 °F 25.5 °F 33.8 °F 97% 29.59 in 5.0 mi West 13.8 mph - N/A   Drizzle
3:55 PM 34.7 °F 25.1 °F 33.8 °F 97% 29.59 in 4.0 mi West 15.0 mph - N/A   Drizzle
4:15 PM 34.9 °F 25.7 °F 34.0 °F 97% 29.61 in 10.0 mi West 13.8 mph 20.7 mph N/A   Light Drizzle
4:35 PM 34.7 °F 25.1 °F 33.6 °F 96% 29.62 in 7.0 mi West 15.0 mph 21.9 mph N/A   Drizzle
4:55 PM 34.2 °F 24.8 °F 33.1 °F 96% 29.63 in 7.0 mi West 13.8 mph - N/A   Drizzle
5:15 PM 33.8 °F 22.5 °F 32.4 °F 94% 29.64 in 7.0 mi West 19.6 mph 23.0 mph N/A   Drizzle
5:35 PM 33.6 °F 24.1 °F 32.2 °F 94% 29.65 in 7.0 mi West 13.8 mph - N/A   Light Drizzle
5:55 PM 33.3 °F 22.8 °F 32.0 °F 95% 29.66 in 10.0 mi West 16.1 mph - N/A   Drizzle
6:15 PM 33.1 °F 23.4 °F 32.0 °F 96% 29.67 in 10.0 mi West 13.8 mph 21.9 mph N/A   Drizzle
6:35 PM 33.1 °F 23.0 °F 31.6 °F 94% 29.68 in 10.0 mi West 15.0 mph 24.2 mph N/A   Overcast
6:55 PM 32.9 °F 22.8 °F 31.1 °F 93% 29.70 in 10.0 mi West 15.0 mph 19.6 mph N/A   Overcast
7:15 PM 32.9 °F 24.1 °F 31.3 °F 94% 29.71 in 10.0 mi West 11.5 mph 16.1 mph N/A   Overcast
7:35 PM 32.9 °F 23.2 °F 31.5 °F 94% 29.71 in 10.0 mi West 13.8 mph - N/A   Overcast
7:55 PM 32.9 °F 22.8 °F 31.1 °F 93% 29.73 in 10.0 mi West 15.0 mph - N/A   Overcast
8:15 PM 32.5 °F 21.9 °F 31.1 °F 94% 29.73 in 10.0 mi West 16.1 mph - N/A   Overcast
8:35 PM 32.4 °F 20.9 °F 31.1 °F 95% 29.74 in 7.0 mi West 18.4 mph - N/A   Overcast
8:55 PM 32.0 °F 22.5 °F 31.5 °F 98% 29.74 in 4.0 mi West 12.7 mph - N/A   Overcast
9:15 PM 32.2 °F 22.7 °F 31.1 °F 96% 29.75 in 7.0 mi West 12.7 mph - N/A   Overcast
9:35 PM 32.2 °F 20.7 °F 31.1 °F 96% 29.76 in 10.0 mi West 18.4 mph 24.2 mph N/A   Overcast
9:55 PM 32.0 °F 21.2 °F 31.3 °F 97% 29.77 in 5.0 mi West 16.1 mph 21.9 mph N/A   Overcast
10:15 PM 32.0 °F 20.8 °F 31.1 °F 96% 29.78 in 10.0 mi West 17.3 mph - N/A   Overcast
10:35 PM 32.0 °F 20.8 °F 30.2 °F 93% 29.78 in 4.0 mi West 17.3 mph 21.9 mph N/A   Overcast
10:55 PM 32.0 °F 20.5 °F 30.2 °F 93% 29.79 in 10.0 mi West 18.4 mph - N/A   Overcast
11:15 PM 32.0 °F 20.5 °F 30.0 °F 92% 29.79 in 10.0 mi West 18.4 mph 23.0 mph N/A   Overcast
11:35 PM 32.0 °F 20.5 °F 29.7 °F 91% 29.80 in 10.0 mi West 18.4 mph - N/A   Overcast
11:55 PM 32.0 °F 21.6 °F 30.0 °F 92% 29.80 in 10.0 mi West 15.0 mph - N/A   Overcast